GW0544 Weather Reports


Display with metric or nautical units.
time (UTC)temp
F
wind
direction
speed
MPH
gust
MPH
rain 1hr
in
rain 24hr
in
rain mn
in
humidity
%
barometer
mb
20260906021608 82 288 1.0 4.0 0.00 0.00 0.00 40 1016.1
20260906020107 83 0 1.0 9.0 0.00 0.00 0.00 39 1016.1
20260906014603 84 313 2.0 7.0 0.00 0.00 0.00 39 1015.9
20260906013059 85 224 2.0 10.0 0.00 0.00 0.00 39 1016.1
20260906011604 88 269 2.0 7.0 0.00 0.00 0.00 37 1016.1
20260906010108 88 289 2.0 11.0 0.00 0.00 0.00 36 1016.1
20260906004605 87 311 1.0 10.0 0.00 0.00 0.00 38 1016.1
20260906003103 86 272 1.0 9.0 0.00 0.00 0.00 39 1016.2
20260906001610 86 257 3.0 9.0 0.00 0.00 0.00 38 1016.2
20260906000100 86 283 4.0 9.0 0.00 0.00 0.00 38 1016.1
20260905234602 86 283 3.0 9.0 0.00 0.00 0.00 38 1016.0
20260905233110 87 232 3.0 10.0 0.00 0.00 0.00 39 1016.2
20260905231557 88 269 4.0 9.0 0.00 0.00 0.00 38 1016.2
20260905230106 89 272 1.0 10.0 0.00 0.00 0.00 36 1016.2
20260905224607 89 231 3.0 12.0 0.00 0.00 0.00 36 1016.2
20260905223058 88 261 4.0 11.0 0.00 0.00 0.00 36 1016.4
20260905221606 90 253 7.0 14.0 0.00 0.00 0.00 35 1016.4
20260905220104 91 294 4.0 11.0 0.00 0.00 0.00 34 1016.7
20260905214603 91 267 4.0 9.0 0.00 0.00 0.00 35 1016.7
20260905213109 90 300 5.0 11.0 0.00 0.00 0.00 33 1016.8
20260905211604 90 252 2.0 10.0 0.00 0.00 0.00 33 1017.0
20260905210113 89 253 4.0 11.0 0.00 0.00 0.00 34 1017.1
20260905204604 89 249 3.0 11.0 0.00 0.00 0.00 32 1017.3
20260905203102 90 273 4.0 10.0 0.00 0.00 0.00 31 1017.4
20260905201608 90 265 4.0 10.0 0.00 0.00 0.00 31 1017.2
20260905200152 89 223 4.0 11.0 0.00 0.00 0.00 33 1017.2
20260905194619 87 281 3.0 8.0 0.00 0.00 0.00 34 1017.4
20260905193103 87 298 3.0 11.0 0.00 0.00 0.00 34 1017.6
20260905191600 86 257 4.0 10.0 0.00 0.00 0.00 35 1017.8
20260905190104 87 337 5.0 12.0 0.00 0.00 0.00 36 1017.9
20260905184612 87 307 1.0 11.0 0.00 0.00 0.00 35 1017.9
20260905183100 87 333 3.0 10.0 0.00 0.00 0.00 34 1018.0
20260905181558 87 279 4.0 10.0 0.00 0.00 0.00 35 1018.0
20260905180108 88 231 5.0 11.0 0.00 0.00 0.00 33 1018.0
20260905174605 87 319 3.0 8.0 0.00 0.00 0.00 35 1018.0
20260905173103 86 293 2.0 11.0 0.00 0.00 0.00 36 1018.0
20260905171607 86 242 3.0 11.0 0.00 0.00 0.00 36 1017.9
20260905170109 85 279 2.0 8.0 0.00 0.00 0.00 37 1017.9
20260905164605 84 0 0.0 3.0 0.00 0.00 0.00 37 1017.6
20260905163104 81 222 1.0 5.0 0.00 0.00 0.00 38 1017.8
20260905161609 77 0 0.0 0.0 0.00 0.00 0.00 39 1017.7
20260905160106 70 0 0.0 0.0 0.00 0.00 0.00 49 1017.7
20260905154602 66 0 0.0 0.0 0.00 0.00 0.00 54 1017.9
20260905153107 61 0 0.0 0.0 0.00 0.00 0.00 59 1018.0
20260905151602 58 0 0.0 3.0 0.00 0.00 0.00 62 1018.0
20260905150059 56 47 1.0 3.0 0.00 0.00 0.00 64 1018.0
20260905144558 55 0 0.0 2.0 0.00 0.00 0.00 62 1017.8
20260905143056 55 0 0.0 0.0 0.00 0.00 0.00 60 1017.6
20260905141557 55 0 0.0 4.0 0.00 0.00 0.00 62 1017.4
20260905134558 51 0 0.0 2.0 0.00 0.00 0.00 66 1016.8
20260905133056 50 0 0.0 2.0 0.00 0.00 0.00 66 1016.5
20260905131559 49 0 0.0 3.0 0.00 0.00 0.00 65 1016.4
20260905124604 50 0 0.0 3.0 0.00 0.00 0.00 63 1016.3
20260905123100 51 0 0.0 3.0 0.00 0.00 0.00 62 1016.2
20260905121556 50 74 2.0 5.0 0.00 0.00 0.00 63 1016.1
20260905114611 50 0 0.0 5.0 0.00 0.00 0.00 62 1016.2
20260905113059 50 65 1.0 4.0 0.00 0.00 0.00 64 1016.2
20260905111613 50 0 0.0 3.0 0.00 0.00 0.00 63 1016.2
20260905104558 50 66 0.0 4.0 0.00 0.00 0.00 62 1016.4
20260905103100 50 67 2.0 5.0 0.00 0.00 0.00 66 1016.7
20260905101602 49 72 2.0 4.0 0.00 0.00 0.00 68 1016.5
20260905100105 49 0 0.0 2.0 0.00 0.00 0.00 67 1016.5
20260905094608 49 0 0.0 3.0 0.00 0.00 0.00 67 1016.5
20260905093101 49 76 0.0 6.0 0.00 0.00 0.00 70 1016.6
20260905091609 49 0 1.0 4.0 0.00 0.00 0.00 70 1016.6
20260905090103 49 0 1.0 3.0 0.00 0.00 0.00 69 1016.7
20260905084607 49 0 0.0 2.0 0.00 0.00 0.00 68 1016.8
20260905083102 50 85 2.0 6.0 0.00 0.00 0.00 67 1017.0
20260905081619 51 77 2.0 4.0 0.00 0.00 0.00 69 1017.2
20260905080121 51 0 0.0 4.0 0.00 0.00 0.00 69 1017.2
20260905074604 51 71 0.0 3.0 0.00 0.00 0.00 68 1017.4
20260905073104 52 0 0.0 0.0 0.00 0.00 0.00 66 1017.4
20260905071606 53 0 0.0 3.0 0.00 0.00 0.00 67 1017.5
20260905070105 53 71 1.0 3.0 0.00 0.00 0.00 68 1017.4
20260905064604 53 71 0.0 3.0 0.00 0.00 0.00 66 1017.3
20260905063123 54 0 0.0 2.0 0.00 0.00 0.00 65 1017.2
20260905061614 55 0 0.0 0.0 0.00 0.00 0.00 64 1017.2
20260905060130 56 0 0.0 0.0 0.00 0.00 0.00 64 1017.2
20260905054601 56 71 2.0 3.0 0.00 0.00 0.00 64 1017.2
20260905053103 57 67 1.0 4.0 0.00 0.00 0.00 64 1017.0
20260905051603 57 0 0.0 4.0 0.00 0.00 0.00 62 1017.1
20260905050106 57 69 2.0 5.0 0.00 0.00 0.00 63 1016.7
20260905044603 58 0 0.0 3.0 0.00 0.00 0.00 60 1016.5
20260905043126 60 74 0.0 2.0 0.00 0.00 0.00 56 1016.6
20260905041602 63 74 1.0 2.0 0.00 0.00 0.00 52 1016.5
20260905040122 65 0 0.0 0.0 0.00 0.00 0.00 55 1016.5
20260905034602 66 74 0.0 3.0 0.00 0.00 0.00 58 1016.2
20260905033103 67 69 0.0 4.0 0.00 0.00 0.00 52 1016.1
20260905031558 69 0 0.0 4.0 0.00 0.00 0.00 54 1015.9
20260905030106 70 304 2.0 4.0 0.00 0.00 0.00 52 1015.7
20260905024601 71 253 1.0 3.0 0.00 0.00 0.00 49 1015.3
20260905023104 73 264 2.0 5.0 0.00 0.00 0.00 46 1015.3